Regional Weather Roundup
Issued by NWS

Home | Current Version | Previous Version | Text Only | Print | Product List | Glossary On
Versions: 1 2 3 4 5 6 7 8 9 10 11 12 13 14 15 16 17 18 19 20 21 22 23 24 25 26 27 28 29 30 31 32 33 34 35 36 37 38 39 40 41 42 43 44 45 46 47 48 49 50
000
ASUS43 KMPX 010301
RWRMN
WEATHER ROUNDUP FOR MINNESOTA
NATIONAL WEATHER SERVICE TWIN CITIES/CHANHASSEN MN
1000 PM CDT THU JUL 31 2014


NOTE: "FAIR" INDICATES FEW OR NO CLOUDS BELOW 12,000 FEET WITH NO
SIGNIFICANT WEATHER AND/OR OBSTRUCTIONS TO VISIBILITY. N/A MEANS
CURRENT SKY AND/OR WEATHER CONDITIONS ARE NOT AVAILABLE.

MNZ060>063-068>070-010400-
   Twin Cities Metro

CITY           SKY/WX    TMP DP  RH WIND       PRES   REMARKS
TWIN CITIES    CLEAR     74  57  55 CALM      30.01R
ST PAUL        CLEAR     73  57  57 CALM      30.00R
CRYSTAL        CLEAR     69  58  67 CALM      29.99R
BLAINE         CLEAR     70  59  68 CALM      30.01R
LAKEVILLE      CLEAR     64  61  88 CALM      30.02R
EDEN PRAIRIE   CLEAR     71  59  65 SW3       30.00R
SOUTH ST PAUL  CLEAR     72  58  60 CALM      30.00R
LAKE ELMO      FAIR      63  61  94 CALM      30.02R
$$
MNZ001>005-007-008-013>017-022>024-027-028-010400-
   Northwest Minnesota

CITY           SKY/WX    TMP DP  RH WIND       PRES   REMARKS
BEMIDJI        CLEAR     63  59  86 CALM      30.01S
HALLOCK        CLEAR     68  63  83 CALM      29.99R
ROSEAU           N/A     66  59  77 NW3       29.99S
WARROAD        CLEAR     68  59  73 NW5       30.00R
THIEF RVR FALL CLEAR     70  63  78 CALM      30.00S
CROOKSTON      CLEAR     73  64  73 CALM      30.00R
FOSSTON        CLEAR     63  54  72 CALM      30.02R
DETROIT LAKES  CLEAR     70  61  73 CALM      30.03S
MOORHEAD       CLEAR     72  66  83 CALM      30.01R HAZE
PARK RAPIDS    CLEAR     65  60  84 CALM      30.02R
$$
MNZ006-009>011-018-025>026-010400-
   North Central Minnesota

CITY           SKY/WX    TMP DP  RH WIND       PRES   REMARKS
BAUDETTE       CLEAR     65  59  81 CALM      30.00S
FLAG ISLAND    PTCLDY    72  61  68 CALM      29.98S
INTL FALLS     CLEAR     56  55  97 CALM      29.99R
WASKISH        CLEAR     63  61  94 CALM      30.00S
BIG FORK       CLEAR     57  55  94 CALM      30.01S
LONGVILLE      CLEAR     61  61 100 CALM      30.01S FOG
GRAND RAPIDS   CLEAR     63  57  82 CALM      30.01R
CRANE LAKE     CLEAR     55  54  94 CALM      30.01S
ORR            CLEAR     59  55  88 CALM      29.98S
COOK           CLEAR     59  57  94 CALM      30.01R
$$
MNZ012-019>021-037-010400-
   Northeast Minnesota

CITY           SKY/WX    TMP DP  RH WIND       PRES   REMARKS
DULUTH         CLEAR     64  57  78 CALM      29.99S
ELY            CLEAR     57  52  82 CALM      30.00S
HIBBING        PTCLDY    61  57  87 CALM      30.00R
EVELETH        CLEAR     59  55  88 CALM      30.01S
DULUTH HARBOR  CLEAR     68  61  77 N3        29.97S
TWO HARBORS    CLEAR     63  54  72 CALM      29.97R
SILVER BAY     CLEAR     55  55 100 CALM      29.97S
GRAND MARAIS     N/A     51  49  92 NW3       29.95S
G MARAIS ARPRT CLEAR     54  48  82 NW5       30.01S
$$
MNZ029>031-032-039>041-046>048-054>057-064-010400-
   West Central Minnesota

CITY           SKY/WX    TMP DP  RH WIND       PRES   REMARKS
FERGUS FALLS   CLEAR     72  57  60 CALM      30.01R
WHEATON        CLEAR     64  59  82 CALM      30.03S
MORRIS         CLEAR     66  61  82 W3        30.02R
ALEXANDRIA     CLEAR     69  61  75 CALM      30.04R
ELBOW LAKE     FAIR      69  65  86 CALM      30.02R
WADENA         CLEAR     63  61  94 CALM      30.02S
GLENWOOD       CLEAR     66  61  82 SW3       30.04R HAZE
APPLETON       CLEAR     66  61  82 CALM      30.02S
BENSON         CLEAR     64  61  88 CALM      30.03R
ORTONVILLE     CLEAR     68  59  73 CALM      30.03R
MADISON        CLEAR     70  63  78 CALM      30.03S
WILLMAR        FAIR      66  59  77 CALM      30.04R
$$
MNZ033>034-036-042>043-049>051-058-059-010400-
   Central Minnesota

CITY           SKY/WX    TMP DP  RH WIND       PRES   REMARKS
ST CLOUD       CLEAR     67  59  75 CALM      30.00S
SAUK CENTRE    FAIR      66  61  83 CALM      30.03S
PAYNESVILLE    CLEAR     62  57  85 S3        30.03S
AITKIN         CLEAR     63  57  82 CALM      30.00R
PINE RIVER     CLEAR     64  61  88 CALM      30.04S
BRAINERD       MOCLDY    67  62  84 CALM      30.01R
STAPLES        CLEAR     64  57  77 CALM      30.02R
LONG PRAIRIE   FAIR      64  61  88 CALM      30.03S
LITTLE FALLS   CLEAR     64  59  82 CALM      30.01S
LITCHFIELD     CLEAR     68  63  83 CALM      30.03R
BUFFALO        CLEAR     69  59  69 CALM      30.02R
MAPLE LAKE     CLEAR     66  61  84 CALM      30.02S
$$
MNZ037-044-045-052-053-010400-
   East Central Minnesota

CITY           SKY/WX    TMP DP  RH WIND       PRES   REMARKS
PRINCETON      CLEAR     66  61  82 CALM      30.01R
MORA           PTCLDY    64  61  88 CALM      30.01S
CAMBRIDGE      CLEAR     72  57  60 CALM      29.99R
RUSH CITY      CLEAR     64  61  88 CALM      29.99S
MOOSE LAKE     CLEAR     63  61  94 CALM      29.98R FOG
HINCKLEY       FAIR      66  64  94 CALM      29.99S
CLOQUET        CLEAR     63  57  82 CALM      30.00R
MCGREGOR       CLEAR     64  61  88 CALM      30.01R
$$
MNZ071>073-080-081-089-090-097-098-010400-
   Southwest Minnesota

CITY           SKY/WX    TMP DP  RH WIND       PRES   REMARKS
MONTEVIDEO     CLEAR     68  55  64 CALM      30.04R
GRANITE FALLS  CLEAR     64  60  89 CALM      30.05R
CANBY          CLEAR     65  61  85 CALM      30.05R
MARSHALL       CLEAR     70  57  64 CALM      30.04
REDWOOD FALLS  CLEAR     72  57  59 W3        30.03R
OLIVIA         CLEAR     70  63  78 CALM      30.03R
PIPESTONE      CLEAR     68  57  68 CALM      30.06S
WINDOM         CLEAR     64  61  88 CALM      30.06R
WORTHINGTON    CLEAR     66  61  82 CALM      30.08R
JACKSON        PTCLDY    66  61  82 CALM      30.07R
TRACY          CLEAR     68  58  71 CALM      30.05R
SLAYTON        CLEAR     65  60  83 CALM      30.07R
$$
MNZ065>067-074>077-082>085-091>093-010400-
   South Central Minnesota

CITY           SKY/WX    TMP DP  RH WIND       PRES   REMARKS
MANKATO        CLEAR     72  54  53 CALM      30.03R
NEW ULM        CLEAR     68  59  73 CALM      30.03R
ST JAMES       CLEAR     64  59  82 CALM      30.05R
FAIRMONT       MOCLDY    68  57  68 W6        30.05R
GLENCOE        CLEAR     69  59  70 CALM      30.02R
FARIBAULT      CLEAR     64  57  77 CALM      30.03S
OWATONNA       CLEAR     63  57  82 CALM      30.04R
WASECA         CLEAR     61  54  77 CALM      30.06R
ALBERT LEA     CLEAR     64  59  82 CALM      30.05R
$$
MNZ078>079-086>088-094>096-010400-
   Southeast Minnesota

CITY           SKY/WX    TMP DP  RH WIND       PRES   REMARKS
ROCHESTER      CLEAR     64  58  80 W6        30.05R
RED WING       CLEAR     64  61  88 CALM      29.99R
STANTON        CLEAR     63  59  87 S3        30.00S
DODGE CENTER   CLEAR     64  59  82 SW5       30.05R
WINONA         CLEAR     70  64  83 CALM      30.01S
AUSTIN         CLEAR     64  57  77 CALM      30.05R
PRESTON        CLEAR     66  62  85 SW5       30.05R
$$
ABBREVIATIONS USED IN REMARKS
   TC - TEMPERATURES IN CELSIUS
  WCI - WIND CHILL INDEX
   HX - HEAT INDEX
  VSB - VISIBILITY
$$



USA.gov is the U.S. government's official web portal to all federal, state and local government web resources and services.